Location: Wildlife_Club
(35.6000°N, 81.4330°W)
Time: 11:20:59
(UTC-04:00)

Daily predictions for brighter satellites

Satellite Brightness Start Highest point End
(mag) Time Altitude Azimuth Time Altitude Azimuth Time Altitude Azimuth
H-2A R/B 3.2 21:12:00 10° SE 21:15:59 31° ENE 21:19:58 10° N
USA 229 DEB 3.8 21:10:54 10° SSW 21:17:38 59° ESE 21:24:28 10° NE
USA 229 3.8 21:11:00 10° SSW 21:17:44 59° ESE 21:24:34 10° NE
Cosmos 540 Rocket 3.7 21:15:15 10° NNW 21:20:26 76° WSW 21:25:33 10° S
Cosmos 1441 Rocket 3.6 21:17:17 10° SSE 21:20:50 40° E 21:24:23 10° NNE
Cosmos 1328 Rocket 4.0 21:17:32 10° N 21:21:48 44° E 21:26:01 10° SSE
Cosmos 1655 Rocket 4.2 21:17:44 10° S 21:23:57 81° W 21:30:12 10° N
Cosmos 2322 Rocket 2.3 21:20:38 10° NNW 21:26:13 65° ENE 21:31:46 10° SSE
S3M 4.1 21:20:15 10° N 21:26:17 59° E 21:32:18 10° SSE
Cosmos 2228 Rocket 3.1 21:28:32 10° N 21:33:03 80° E 21:37:33 10° S
Cosmos 1743 Rocket 3.6 21:28:45 10° S 21:33:13 86° E 21:37:42 10° N
Cosmos 1980 Rocket 3.5 21:30:29 10° NW 21:35:41 38° WSW 21:40:53 10° S
SL-16 R/B 2.2 21:30:34 10° NNW 21:36:16 74° ENE 21:41:52 10° SSE
Cosmos 2360 Rocket 3.4 21:31:30 10° N 21:36:17 28° ENE 21:40:35 12° ESE
In-Cosmos 22 4.3 21:31:19 10° S 21:37:04 85° E 21:42:52 10° N
Cosmos 968 Rocket 3.8 21:32:35 10° SSW 21:37:44 71° WNW 21:42:57 10° NNE
Cosmos 2221 4.5 21:35:17 10° NNW 21:39:00 29° W 21:42:43 10° SSW
Cosmos 1500 Rocket 3.5 21:35:19 10° S 21:39:37 67° E 21:43:59 10° NNE
ATLAS CENTAUR R/B 2.1 21:37:40 10° NW 21:42:01 52° WSW 21:45:58 10° SSE
Cosmos 1908 4.0 21:40:06 10° NNE 21:43:40 34° E 21:46:18 16° SE
Cosmos 371 Rocket 3.4 21:42:31 10° NNW 21:47:20 77° WSW 21:52:07 10° S
CZ-4 DEB 4.5 21:45:46 10° SSW 21:48:40 32° W 21:51:35 10° NNW
deb Chang Zheng 4 3.6 21:44:58 10° NNE 21:49:19 86° WNW 21:53:39 10° SSW
ALOS 3.9 21:45:54 10° SSW 21:50:04 32° W 21:54:15 10° NNW
USA 186 4.0 21:49:40 10° SW 21:51:02 14° W 21:52:24 10° WNW
Cosmos 1939 Rocket 2.8 21:47:29 12° SSE 21:51:08 73° ENE 21:55:01 10° N
DELTA 2 R/B(2) 3.8 21:53:22 10° W 21:54:56 48° NNW 21:57:02 10° ENE
Delta 2 Rocket 2.8 21:51:42 10° WSW 21:55:15 65° SSE 21:57:59 14° E
Cosmos 1674 2.7 21:53:31 10° S 21:57:16 64° E 22:01:06 10° NNE
Envisat 3.0 21:53:30 13° SSE 21:58:00 72° ENE 22:03:04 10° N
SPOT 5 3.0 21:55:18 17° SE 21:58:35 53° ENE 22:03:10 10° N
GPS 2-04 Rocket1 3.8 21:56:37 10° W 22:00:37 35° SSW 22:02:52 20° SSE
Cosmos 1833 4.2 21:58:24 10° SSW 22:04:08 90° NE 22:09:51 10° NNE
ERS-1 Rocket 3.6 21:59:55 10° S 22:04:50 55° W 22:09:47 10° NNW
Meteor 2-2 Rocket 4.4 22:00:45 10° N 22:06:47 85° E 22:12:06 14° S
Tiangong 1 1.7 22:04:17 10° SSW 22:07:00 31° SSE 22:07:00 31° SSE
Cosmos 1300 4.2 22:07:20 10° NNE 22:10:16 20° ENE 22:11:00 19° E
Cosmos 1437 Rocket 2.7 22:06:34 10° N 22:10:23 81° W 22:13:00 19° S
USA 245 4.0 22:10:34 20° ENE 22:10:34 20° ENE 22:12:24 10° NNE
Cosmos 1515 Rocket 3.9 22:06:06 10° NNW 22:10:30 63° W 22:14:29 12° S
Cosmos 1437 2.8 22:08:49 24° S 22:10:34 59° E 22:13:47 10° NNE
DELTA 2 R/B (1) 3.8 22:06:21 10° WNW 22:11:53 68° NNE 22:16:24 16° E
PSLV R/B 3.0 22:16:12 35° SSE 22:17:22 84° ENE 22:20:26 10° N
Cosmos 2266 Rocket 4.1 22:14:02 10° S 22:20:21 78° W 22:26:37 10° N
Sich 1 4.0 22:20:01 27° ESE 22:20:54 29° E 22:24:42 10° NNE
Cosmos 1633 Rocket 4.1 22:21:04 26° ESE 22:21:47 27° E 22:25:30 10° NNE
Cosmos 2151 2.9 22:18:32 16° S 22:21:53 90° NNE 22:26:05 10° N
Cosmos 2315 Rocket 4.1 22:15:52 10° N 22:21:58 57° E 22:25:34 25° SSE
COSMOS 2428 3.8 22:17:05 10° N 22:22:08 32° ENE 22:24:46 22° ESE
YAOGAN 6 2.7 22:23:27 37° SE 22:24:40 60° ENE 22:28:15 10° N
NOSS 3-1 (C) 3.4 22:19:30 10° SSW 22:25:07 58° ESE 22:31:16 10° NE
Cosmos 405 3.2 22:22:26 10° NNW 22:26:03 71° W 22:27:44 29° S
Cosmos 304 Rocket 3.7 22:25:15 10° NNW 22:30:04 76° ENE 22:32:12 33° SSE
Cosmos 1328 3.7 22:28:08 23° S 22:30:32 84° W 22:34:30 10° N
H-2A R/B 3.4 22:29:35 21° E 22:31:27 26° ENE 22:35:52 10° NNE
Cosmos 1805 Rocket 3.5 22:33:35 31° S 22:35:40 73° E 22:40:06 10° N
Cosmos 1151 Rocket 3.5 22:31:53 10° NNW 22:36:07 56° W 22:38:40 22° SSW
MetOp-A 4.2 22:33:53 24° S 22:37:09 77° WSW 22:42:31 10° NNW
Cosmos 2219 Rocket 3.8 22:34:21 10° N 22:38:35 21° ENE 22:40:42 17° E
ARGOS 3.2 22:37:03 33° SE 22:39:26 63° ENE 22:44:47 10° N
Cosmos 1244 Rocket 4.5 22:37:10 22° S 22:41:24 74° E 22:47:41 10° N
SPOT 1/Viking Rocket 3.4 22:41:06 34° SSE 22:43:25 83° ENE 22:48:36 10° NNW
OE (NEXTSAT) 4.2 22:39:58 10° WNW 22:43:32 76° SSW 22:43:51 68° SSE
Cosmos 1680 Rocket 3.5 22:42:07 10° NNW 22:47:22 78° WSW 22:49:36 35° S
Cosmos 2058 3.0 22:46:01 33° SSW 22:47:48 74° W 22:51:54 10° N
H-2A R/B 4.3 22:48:33 10° SW 22:51:58 21° W 22:55:24 10° NW
CZ-4B R/B 4.0 22:49:07 10° N 22:54:20 61° WNW 22:58:43 14° SSW
Cosmos 2219 3.6 22:48:42 10° SSW 22:54:24 65° WNW 23:00:08 10° NNE
Terra 2.6 22:55:46 34° E 22:56:29 36° ENE 23:00:50 10° N
Cosmos 1707 Rocket 3.4 22:52:50 10° N 22:57:12 86° E 22:58:03 57° SSE
SL-14 R/B 3.2 22:56:58 62° S 22:57:35 88° W 23:01:35 10° N
Cosmos 1666 Rocket 3.5 22:56:36 46° S 22:57:52 86° W 23:02:18 10° N
Cosmos 1703 3.8 22:58:43 43° ENE 22:58:43 43° ENE 23:02:00 10° NNE
Cosmos 1898 Rocket 3.3 22:56:18 38° S 22:58:19 75° ESE 23:03:31 10° NNE
Cosmos 1745 Rocket 4.2 22:57:28 39° SE 22:59:24 53° E 23:05:23 10° NNE
Cosmos 2150 Rocket 4.0 22:57:11 33° S 22:59:43 80° ESE 23:05:12 10° NNE
SL-08 R/B 4.5 22:58:31 38° SSE 23:00:50 65° E 23:07:02 10° NNE
Cosmos 1726 2.0 22:59:03 10° N 23:02:46 76° ENE 23:02:46 76° ENE
Meteor 1-27 4.1 22:57:31 10° N 23:03:14 89° W 23:05:11 43° S
Meteor 2-11 Rocket 4.4 22:57:28 10° N 23:03:39 88° E 23:06:04 40° S
Cosmos 1271 Rocket 3.4 22:59:58 10° N 23:03:14 41° ENE 23:03:14 41° ENE
Cosmos 2333 4.5 22:58:30 10° NNW 23:04:09 56° ENE 23:05:40 43° ESE
Cosmos 858 Rocket 4.3 23:04:03 42° S 23:05:51 80° ESE 23:11:03 10° NNE
Cosmos 2322 4.3 23:00:25 10° NNW 23:05:56 51° WSW 23:08:13 32° SSW
Cosmos 2237 Rocket 3.6 23:02:33 10° N 23:07:10 25° ENE 23:08:42 22° E
Cosmos 2082 4.3 23:07:20 37° E 23:07:20 37° E 23:12:23 10° NE
Cosmos 1470 Rocket 4.0 23:11:48 45° ENE 23:11:48 45° ENE 23:15:27 10° NNE
Cosmos 220 Rocket 4.1 23:12:13 62° E 23:12:13 62° E 23:16:18 10° NNE
OAO 2 Rocket 3.5 23:06:46 10° WSW 23:11:37 55° S 23:11:37 55° S
Cosmos 1933 Rocket 4.0 23:13:06 47° ENE 23:13:06 47° ENE 23:17:00 10° NNE
Iridium 2 4.0 23:14:54 57° NE 23:14:54 57° NE 23:18:08 10° N
IGS 5A 3.9 23:14:41 48° ENE 23:14:41 48° ENE 23:18:30 10° N
DMSP B5D2-2 4.0 23:09:17 10° NNE 23:14:28 64° ESE 23:15:09 58° SE
Cosmos 2360 Rocket 3.3 23:15:10 10° NW 23:20:18 36° WSW 23:22:22 27° SW
NOSS 3-1 (A) 3.8 23:22:13 10° SW 23:27:58 63° NW 23:34:21 10° NNE
Cosmos 1386 Rocket 4.4 23:27:31 57° SE 23:28:30 66° E 23:34:27 10° NNE
NOSS 0 Rocket 4.2 23:26:08 10° NNW 23:32:10 55° ENE 23:33:19 48° ESE
USA 32 4.2 23:27:51 10° N 23:33:05 69° W 23:34:01 56° SW
Meteor 2-10 4.1 23:27:38 10° N 23:33:23 85° E 23:34:15 66° SSE
Meteor 1-4 Rocket 3.5 23:31:12 10° NNW 23:34:10 48° NW 23:34:10 48° NW
Cosmos 1626 3.4 23:40:11 37° NNE 23:40:11 37° NNE 23:42:35 10° N
Cosmos 2242 Rocket 4.0 23:34:37 10° NNW 23:38:59 54° W 23:39:05 54° W
Cosmos 2227 Rocket 2.0 23:42:29 74° S 23:42:58 82° ESE 23:48:40 10° NNE
ATLAS 2AS CENTAUR R/B 2.8 23:48:09 51° S 23:50:12 73° ESE 23:58:08 10° NE
CARTOSAT-1 4.4 23:54:18 43° W 23:54:18 43° W 23:58:01 10° NNW
Cosmos 1862 Rocket 4.0 23:51:16 10° N 23:54:46 57° NNW 23:54:46 57° NNW
